This demonstration page uses our WeatherBlox Daily Observations layout. Learn more.

Left ArrowRight Arrow

39.01783, -85.05884

Hourly Observations for May 31, 2019

Temp ( °F °C ) Dew Point ( °F °C ) Humidity (%) Winds ( mph kmh ) Pressure ( in mb ) Visibility ( mi km ) Precip ( " mm )
12:05 am 00:05 Cloudy 68 20 62 16.7 81 81 E 3 6 29.84 1010 10 16 0.00 0.00
12:20 am 00:20 Cloudy 68 20 62 16.7 81 81 Calm 29.84 1010 10 16 0.00 0.00
12:36 am 00:36 Mostly Cloudy 68 20 63 17.2 84 84 Calm 29.83 1010 10 16 0.00 0.00
12:52 am 00:52 Mostly Cloudy 69 20.6 63 17.2 81 81 Calm 29.83 1010 10 16 0.00 0.00
1:05 am 01:05 Partly Cloudy 66 18.9 63 17.2 90 90 Calm 29.83 1010 9 14 0.00 0.00
1:52 am 01:52 Mostly Clear with Mist and Fog 66 18.9 64 17.8 93 93 SSW 6 9 29.82 1010 6 10 0.00 0.00
2:52 am 02:52 Mostly Cloudy with Patchy Fog 66 18.9 64 17.8 93 93 Calm 29.81 1010 4 6 0.00 0.00
3:04 am 03:04 Mostly Cloudy 66 18.9 62 16.7 87 87 NNW 14 22 29.82 1010 9 14 0.00 0.00
3:23 am 03:23 Cloudy with Light Rain 66 18.9 62 16.7 87 87 N 7 11 29.82 1010 10 16 0.00 0.03
3:37 am 03:37 Partly Cloudy 65 18.3 60 15.6 84 84 NNE 5 7 29.81 1010 10 16 0.00 0.03
3:52 am 03:52 Partly Cloudy 65 18.3 58 14.4 78 78 Calm 29.81 1010 10 16 0.00 0.03
4:52 am 04:52 Mostly Cloudy 63 17.2 59 15 87 87 Calm 29.80 1009 10 16 0.00 0.00
5:52 am 05:52 Mostly Cloudy 62 16.7 60 15.6 93 93 SSW 5 7 29.81 1009 9 14 0.00 0.00
6:17 am 06:17 Mostly Cloudy with Patchy Fog 64 17.8 61 16.1 90 90 SW 5 7 29.82 1010 2 2 0.00 0.00
6:23 am 06:23 Mostly Cloudy with Patchy Fog 64 17.8 61 16.1 90 90 Calm 29.83 1010 1 1 0.00 0.00
6:40 am 06:40 Mostly Cloudy with Patchy Fog 64 17.8 61 16.1 90 90 Calm 29.84 1011 2 3 0.00 0.00
6:45 am 06:45 Mostly Cloudy with Patchy Fog 64 17.8 61 16.1 90 90 W 3 6 29.84 1011 4 6 0.00 0.00
6:52 am 06:52 Mostly Cloudy with Patchy Fog 64 17.8 62 16.7 93 93 Calm 29.83 1010 4 6 0.00 0.00
7:52 am 07:52 Cloudy 64 17.8 60 15.6 87 87 N 8 13 29.86 1011 10 16 0.00 0.00
8:52 am 08:52 Mostly Cloudy 64 17.8 58 14.4 81 81 NNE 8 13 29.87 1012 10 16 0.00 0.00
10:52 am 10:52 Mostly Cloudy 70 21.1 59 15 68 68 Calm 29.88 1012 10 16 0.00 0.00
11:52 am 11:52 Mostly Cloudy 73 22.8 61 16.1 66 66 NNW 8 13 29.88 1012 10 16 0.00 0.00
12:52 pm 12:52 Mostly Cloudy 72 22.2 61 16.1 68 68 N 12 19 29.88 1012 10 16 0.00 0.03
1:07 pm 13:07 Mostly Cloudy with Nearby Thunderstorms 73 22.8 61 16.1 66 66 NNW 12 19 29.88 1012 10 16 0.00 0.00
1:17 pm 13:17 Mostly Cloudy with Thunderstorms 72 22.2 60 15.6 66 66 N 10 17 29.88 1012 10 16 0.00 0.00
1:52 pm 13:52 Mostly Cloudy with Thunderstorms 74 23.3 60 15.6 62 62 N 12 19 29.86 1011 10 16 0.00 0.00
2:52 pm 14:52 Mostly Cloudy with Thunderstorms 74 23.3 62 16.7 67 67 N 9 15 29.88 1012 10 16 0.00 0.00
2:56 pm 14:56 Cloudy 74 23.3 62 16.7 67 67 N 8 13 29.88 1012 10 16 0.00 0.00
3:52 pm 15:52 Mostly Cloudy 75 23.9 61 16.1 62 62 Calm 29.88 1012 10 16 0.00 0.00
4:52 pm 16:52 Cloudy 75 23.9 59 15 58 58 Calm 29.87 1012 10 16 0.00 0.00
5:52 pm 17:52 Mostly Cloudy 76 24.4 63 17.2 64 64 VRB 3 6 29.86 1011 10 16 0.00 0.00
6:52 pm 18:52 Mostly Cloudy 74 23.3 62 16.7 67 67 W 7 11 29.86 1011 10 16 0.00 0.00
7:52 pm 19:52 Mostly Cloudy 72 22.2 60 15.6 66 66 SW 3 6 29.86 1011 10 16 0.00 0.00
8:52 pm 20:52 Cloudy 71 21.7 59 15 66 66 Calm 29.87 1012 10 16 0.00 0.00
9:52 pm 21:52 Cloudy 67 19.4 59 15 76 76 W 5 7 29.88 1012 10 16 0.00 0.00
10:52 pm 22:52 Clear 67 19.4 59 15 76 76 W 6 9 29.88 1012 10 16 0.00 0.00
11:52 pm 23:52 Clear 64 17.8 60 15.6 87 87 SW 5 7 29.89 1012 10 16 0.00 0.00

Powered by AerisWeather